Home > Weather > Cruzeiro do Sul > Past weeks

Flag for Brazil Weather for the Past 2 Weeks in Cruzeiro do Sul, Acre, Brazil

Now
75 °F

Clear.


Feels Like: 74 °F
Forecast: 72 / 90 °F
Wind: 1 mph from Northwest

Location: Cruzeiro Do Sul Airport

Current Time: May 5, 2016 at 11:22:06 PM

Latest Report: May 5, 2016 at 11:00 PM


Visibility: 10 mi

Pressure: 29.92 "Hg

Humidity: 94%

Dew Point: 73 °F

Location of Cruzeiro do SulLocation

Historic Weather in Cruzeiro do Sul — Graph

°F

Cruzeiro do Sul Temperature Yesterday

Maximum temperature yesterday: 91 °F (at 2:00 PM)
Minimum temperature yesterday: 75 °F (at 12:00 AM)
Average temperature yesterday: 83 °F

High & Low Weather Summary for the Past Weeks

 TemperatureHumidityPressure
High93 °F (Apr 26, 3:00 PM)100% (Apr 22, 12:00 AM)30.09 "Hg (Apr 22, 12:00 AM)
Low63 °F (Apr 27, 7:00 PM)46% (May 2, 4:00 PM)29.68 "Hg (Apr 26, 5:00 PM)
Average79 °F80%29.90 "Hg
* Reported Apr 20 10:00 PM — May 5 10:00 PM, Cruzeiro do Sul, Weather by CustomWeather, © 2016

Note: Actual official high and low records may vary slightly from our data, if they occured in-between our weather recording intervals... More about our weather records

Advertising

Cruzeiro do Sul Weather History for the Previous 24 Hours

Scroll right to see more
 ConditionsComfort  
Time TempWeatherWind HumidityBarometerVisibility
10:00 PM
Thu, May 5
75 °FClear.1 mph94%29.92 "Hg10 mi
9:00 PM75 °FClear.1 mph94%29.89 "Hg10 mi
8:00 PM75 °FPassing clouds.1 mph94%29.89 "HgN/A
7:00 PM77 °FPassing clouds.No wind89%29.86 "HgN/A
6:00 PM79 °FPassing clouds.2 mph84%29.83 "HgN/A
5:00 PM82 °FScattered clouds.9 mph74%29.83 "HgN/A
4:00 PM88 °FScattered clouds.7 mph59%29.83 "HgN/A
3:00 PM90 °FScattered clouds.3 mph55%29.83 "HgN/A
2:00 PM91 °FPartly sunny.6 mph56%29.89 "HgN/A
1:00 PM90 °FPartly sunny.6 mph52%29.92 "HgN/A
12:00 PM88 °FPartly sunny.No wind62%29.95 "HgN/A
11:00 AM86 °FPartly sunny.3 mph66%29.98 "HgN/A
10:00 AM84 °FPartly sunny.3 mph70%30.01 "HgN/A
9:00 AM82 °FPartly sunny.No wind79%30.01 "HgN/A
1:45 AM73 °FClear.1 mph100%29.92 "Hg5 mi
1:00 AM75 °FPassing clouds.No wind94%29.92 "Hg5 mi
12:00 AM75 °FClear.2 mph94%29.95 "Hg10 mi
11:00 PM
Wed, May 4
75 °FPassing clouds.No wind94%29.95 "HgN/A
Weather by CustomWeather, © 2016

See weather overviewHow to use our weather pages